WetterOnline ( http://www.wetteronline.de )

Wetter aktuell Lahnau

Aktuelles Wetter: Gießen (195m)

6-stündlich | Neueste Meldungen
Ortszeit Temperatur Wetter
So, 17.02. 19:00 9.0° C wolkig
So, 17.02. 13:00 10.5° C leicht bewölkt
So, 17.02. 7:00 -2.4° C wolkig
So, 17.02. 1:00 -0.1° C fast wolkenlos
Sa, 16.02. 19:00 8.0° C wolkenlos
Sa, 16.02. 13:00 8.9° C wolkenlos
Sa, 16.02. 7:00 -2.9° C wolkenlos
Sa, 16.02. 1:00 0.1° C wolkenlos
Ortszeit Temperatur Wetter
So, 17.02. 20:30 5.5° C wolkig
So, 17.02. 20:20 5.5° C wolkig
So, 17.02. 20:10 6.0° C wolkig
So, 17.02. 20:00 4.5° C wolkig
So, 17.02. 19:50 4.5° C wolkig
So, 17.02. 19:40 6.6° C wolkig
So, 17.02. 19:30 5.6° C wolkig
So, 17.02. 19:00 9.0° C wolkig
So, 17.02. 18:30 9.4° C wolkig
So, 17.02. 18:00 9.8° C wolkig
So, 17.02. 17:30 10.3° C leicht bewölkt
Ortszeit Relative Feuchte Sichtweite
So, 17.02. 19:00 61% 19 km
So, 17.02. 13:00 58% 17 km
So, 17.02. 7:00 99% 3.9 km
So, 17.02. 1:00 99% 4.6 km
Sa, 16.02. 19:00 64% 19 km
Sa, 16.02. 13:00 64% 21 km
Sa, 16.02. 7:00 98% 13 km
Sa, 16.02. 1:00 92% 26 km
Ortszeit Relative Feuchte Sichtweite
So, 17.02. 20:30 75% 20 km
So, 17.02. 20:20 75% -
So, 17.02. 20:10 73% -
So, 17.02. 20:00 75% 17 km
So, 17.02. 19:50 75% -
So, 17.02. 19:40 69% -
So, 17.02. 19:30 73% 20 km
So, 17.02. 19:00 61% 19 km
So, 17.02. 18:30 59% 20 km
So, 17.02. 18:00 58% 21 km
So, 17.02. 17:30 57% 20 km
Ortszeit Niederschlagsmenge Niederschlagsart
So, 17.02. 19:00 0.0 l/m2 in 12 Std. -
So, 17.02. 13:00 0.0 l/m2 in 6 Std. -
So, 17.02. 7:00 0.0 l/m2 in 12 Std. -
So, 17.02. 1:00 0.0 l/m2 in 6 Std. -
Sa, 16.02. 19:00 0.0 l/m2 in 12 Std. -
Sa, 16.02. 13:00 0.0 l/m2 in 6 Std. -
Sa, 16.02. 7:00 0.0 l/m2 in 12 Std. -
Sa, 16.02. 1:00 0.0 l/m2 in 6 Std. -
Ortszeit Niederschlagsmenge Niederschlagsart
So, 17.02. 20:30 0.0 l/m2 in 1 Std. -
So, 17.02. 20:20 keine Meldung -
So, 17.02. 20:10 keine Meldung -
So, 17.02. 20:00 0.0 l/m2 in 1 Std. -
So, 17.02. 19:50 keine Meldung -
So, 17.02. 19:40 keine Meldung -
So, 17.02. 19:30 0.0 l/m2 in 1 Std. -
So, 17.02. 19:00 0.0 l/m2 in 1 Std. -
So, 17.02. 18:30 0.0 l/m2 in 1 Std. -
So, 17.02. 18:00 0.0 l/m2 in 1 Std. -
So, 17.02. 17:30 0.0 l/m2 in 1 Std. -
Ortszeit Stärke Spitze Richtung
km/h Bft. km/h Grad Sektor
So, 17.02. 19:00 2 1 22 340° N
So, 17.02. 13:00 7 2 18 140° SO
So, 17.02. 7:00 9 2 11 30° NO
So, 17.02. 1:00 4 1 11 30° NO
Sa, 16.02. 19:00 4 1 18 130° SO
Sa, 16.02. 13:00 7 2 11 190° S
Sa, 16.02. 7:00 9 2 15 60° NO
Sa, 16.02. 1:00 13 3 15 50° NO
Ortszeit Stärke Spitze Richtung
km/h Bft. km/h Grad Sektor
So, 17.02. 20:30 0 0 4 - -
So, 17.02. 20:20 2 1 - 340° N
So, 17.02. 20:10 2 1 - 10° N
So, 17.02. 20:00 4 1 4 20° N
So, 17.02. 19:50 4 1 - 20° N
So, 17.02. 19:40 4 1 - 20° N
So, 17.02. 19:30 2 1 4 330° NW
So, 17.02. 19:00 2 1 6 340° N
So, 17.02. 18:30 4 1 7 90° O
So, 17.02. 18:00 4 1 11 190° S
So, 17.02. 17:30 4 1 11 100° O
Ortszeit Untergrenze Bedeckung Gattung
total tief tief mittel hoch
So, 17.02. 19:00 9000 m 8/8 0/8 - - -
So, 17.02. 13:00 8400 m 7/8 0/8 - - -
So, 17.02. 7:00 9000 m 8/8 0/8 - - -
So, 17.02. 1:00 1260 m 1/8 1/8 - - -
Sa, 16.02. 19:00 - 0/8 0/8 - - -
Sa, 16.02. 13:00 - 0/8 0/8 - - -
Sa, 16.02. 7:00 - 0/8 0/8 - - -
Sa, 16.02. 1:00 - 0/8 0/8 - - -
Ortszeit Bedeckungsgrad in Achtel und Wolkenuntergrenze
So, 17.02. 20:30 8(9000m)
So, 17.02. 20:20 8(9000m)
So, 17.02. 20:10 8(9000m)
So, 17.02. 20:00 8(9000m)
So, 17.02. 19:50 8(9000m)
So, 17.02. 19:40 8(9000m)
So, 17.02. 19:30 8(9000m)
So, 17.02. 19:00 6(9000m) 8(9000m)
So, 17.02. 18:30 3(9000m) 5(9000m) 8(10500m)
So, 17.02. 18:00 6(9000m) 8(9000m) 8(10500m)
So, 17.02. 17:30 6(9000m) 7(9000m) 7(10500m)
Ortszeit Luftdruck NN (hPa) Tendenz (hPa in 3 Std.)
So, 17.02. 19:00 1022 - 0,3
So, 17.02. 13:00 1024 - 1,4
So, 17.02. 7:00 1027 - 0,8
So, 17.02. 1:00 1028 - 0,2
Sa, 16.02. 19:00 1027 - 0,2
Sa, 16.02. 13:00 1028 - 1,0
Sa, 16.02. 7:00 1030 - 0,4
Sa, 16.02. 1:00 1031 - 0,7
Ortszeit Luftdruck NN (hPa) Tendenz (hPa in 3 Std.)
So, 17.02. 20:30 1023 + 0,6
So, 17.02. 20:20 1023 keine Meldung
So, 17.02. 20:10 1023 keine Meldung
So, 17.02. 20:00 1023 + 0,1
So, 17.02. 19:50 1023 keine Meldung
So, 17.02. 19:40 1023 keine Meldung
So, 17.02. 19:30 1023 - 0,1
So, 17.02. 19:00 1022 - 0,3
So, 17.02. 18:30 1022 - 0,6
So, 17.02. 18:00 1022 - 1,0
So, 17.02. 17:30 1022 - 1,2
Ortszeit Schneehöhe (cm)
So, 17.02. 19:00 0
So, 17.02. 13:00 0
So, 17.02. 7:00 0
So, 17.02. 1:00 0
Sa, 16.02. 19:00 0
Sa, 16.02. 13:00 0
Sa, 16.02. 7:00 0
Sa, 16.02. 1:00 0
Ortszeit Schneehöhe (cm)
So, 17.02. 20:30 0
So, 17.02. 20:20 0
So, 17.02. 20:10 0
So, 17.02. 20:00 0
So, 17.02. 19:50 0
So, 17.02. 19:40 0
So, 17.02. 19:30 0
So, 17.02. 19:00 0
So, 17.02. 18:30 0
So, 17.02. 18:00 0
So, 17.02. 17:30 0
Link zu dieser Seite / Seite empfehlen

Das Wetter in ...